Location: Goll?ig?dem
(16.6773°N, 80.7332°E)
Time: 07:36:07
(UTC+00:00)

ADEOS Rocket - Pass Details

Date: 21 April 2021
Orbit: 859 x 1305 km, 98.7° (Epoch: 05 May)

Event Time Altitude Azimuth Distance (km) Brightness Sun altitude
Exits shadow 21:57:45 31° 338° (NNW) 1,748 4.3 -32.3°
Drops below altitude 10° 22:01:00 10° 343° (NNW) 2,928 5.6 -31.6°
Sets 22:03:41 0° 345° (NNW) 3,952 6.3 -31.1°
